Orbital Elements at Epoch 2455185.5 (2009-Dec-20.0) TDB
Reference: JPL 9 (heliocentric ecliptic J2000)
Element | Value | Uncertainty (1-sigma) | Units |
e | .5686950644375306 | 8.2315e-07 | |
a | 3.540699675067 | 2.9246e-07 | au |
q | 1.527121245200829 | 2.8054e-06 | au |
i | 15.30550506709045 | 1.3483e-05 | deg |
node | 179.6179218543356 | 4.9778e-05 | deg |
peri | 154.2642271848786 | 0.00030195 | deg |
M | 68.92740440940824 | 6.758e-05 | deg |
tp | 2454719.569127786315 (2008-Sep-10.06912779) | 0.00046708 | TDB |
period | 2433.503995023953 6.66 | 0.0003015 8.255e-07 | d yr |
n | .1479348300788208 | 1.8329e-08 | deg/d |
Q | 5.554278104933172 | 4.5877e-07 | au |
|
Additional Model Parameters
Parameter | Value | Uncertainty (1-sigma) |
A2 [EST] | 5.834321372386439E-9 | 4.967E-10 |
|
| | Orbit Determination Parameters
Additional Information
|